Previsão horária em Barras

Hoje, 26 Outubro, Segunda-feira

Tempo Temperatura Precipitação Vento Pressão Humidade
00:00 +27°C° 0 mm 2 m/s 749 mmHg 76%
01:00 +26°C° 0 mm 2 m/s 749 mmHg 77%
02:00 +26°C° 0 mm 1 m/s 748 mmHg 78%
03:00 +25°C° 0 mm 1 m/s 748 mmHg 79%
04:00 +25°C° 0 mm 1 m/s 749 mmHg 79%
05:00 +25°C° 0 mm 1 m/s 749 mmHg 79%
06:00 +23°C° 0 mm 0 m/s 749 mmHg 79%
07:00 +29°C° 0 mm 1 m/s 750 mmHg 66%
08:00 +32°C° 0 mm 1 m/s 750 mmHg 53%
09:00 +36°C° 0 mm 2 m/s 751 mmHg 41%
10:00 +38°C° 0 mm 2 m/s 750 mmHg 35%
11:00 +40°C° 0 mm 2 m/s 749 mmHg 30%
12:00 +43°C° 0 mm 2 m/s 748 mmHg 25%
13:00 +42°C° 0 mm 2 m/s 747 mmHg 25%
14:00 +42°C° 0 mm 2 m/s 746 mmHg 24%
15:00 +41°C° 0 mm 1 m/s 746 mmHg 24%
16:00 +40°C° 0 mm 2 m/s 746 mmHg 28%
17:00 +38°C° 0 mm 2 m/s 746 mmHg 33%
18:00 +36°C° 0 mm 2 m/s 746 mmHg 37%
19:00 +34°C° 0 mm 3 m/s 747 mmHg 49%
20:00 +31°C° 0 mm 3 m/s 748 mmHg 60%
21:00 +29°C° 0 mm 4 m/s 748 mmHg 72%
22:00 +28°C° 0 mm 3 m/s 749 mmHg 73%
23:00 +28°C° 0 mm 3 m/s 749 mmHg 74%

Amanhã, 27 Outubro, Terça-feira

Tempo Temperatura Precipitação Vento Pressão Humidade
00:00 +27°C° 0 mm 2 m/s 749 mmHg 75%
01:00 +27°C° 0 mm 1 m/s 749 mmHg 78%
02:00 +26°C° 0 mm 1 m/s 749 mmHg 81%
03:00 +25°C° 0 mm 1 m/s 748 mmHg 84%
04:00 +23°C° 0 mm 0 m/s 749 mmHg 84%
05:00 +23°C° 0 mm 0 m/s 749 mmHg 84%
06:00 +23°C° 0 mm 0 m/s 750 mmHg 84%
07:00 +27°C° 0 mm 0 m/s 750 mmHg 69%
08:00 +32°C° 0 mm 1 m/s 750 mmHg 54%
09:00 +36°C° 0 mm 1 m/s 751 mmHg 38%
10:00 +40°C° 0 mm 1 m/s 750 mmHg 32%
11:00 +44°C° 0 mm 1 m/s 749 mmHg 25%
12:00 +44°C° 0 mm 0 m/s 748 mmHg 18%
13:00 +46°C° 0 mm 1 m/s 747 mmHg 18%
14:00 +45°C° 0 mm 1 m/s 746 mmHg 18%
15:00 +44°C° 0 mm 1 m/s 745 mmHg 18%
16:00 +41°C° 0 mm 2 m/s 745 mmHg 24%
17:00 +39°C° 0 mm 2 m/s 745 mmHg 29%
18:00 +36°C° 0 mm 3 m/s 746 mmHg 35%
19:00 +34°C° 0 mm 3 m/s 746 mmHg 45%
20:00 +31°C° 0 mm 3 m/s 747 mmHg 55%
21:00 +29°C° 0 mm 3 m/s 748 mmHg 65%
22:00 +29°C° 0 mm 3 m/s 748 mmHg 67%
23:00 +28°C° 0 mm 2 m/s 748 mmHg 70%

Depois de amanhã, 28 Outubro, Quarta-feira

Tempo Temperatura Precipitação Vento Pressão Humidade
00:00 +27°C° 0 mm 2 m/s 748 mmHg 73%
01:00 +27°C° 0 mm 2 m/s 747 mmHg 76%
02:00 +26°C° 0 mm 2 m/s 747 mmHg 79%
03:00 +26°C° 0 mm 1 m/s 747 mmHg 83%
04:00 +26°C° 0 mm 1 m/s 747 mmHg 84%
05:00 +26°C° 0 mm 1 m/s 748 mmHg 84%
06:00 +26°C° 0 mm 1 m/s 748 mmHg 85%
07:00 +29°C° 0 mm 1 m/s 749 mmHg 71%
08:00 +32°C° 0 mm 2 m/s 749 mmHg 57%
09:00 +36°C° 0 mm 2 m/s 750 mmHg 44%
10:00 +39°C° 0 mm 2 m/s 749 mmHg 37%
11:00 +41°C° 0 mm 1 m/s 748 mmHg 30%
12:00 +44°C° 0 mm 1 m/s 747 mmHg 24%
13:00 +43°C° 0 mm 1 m/s 747 mmHg 25%
14:00 +42°C° 0 mm 1 m/s 746 mmHg 26%
15:00 +41°C° 0 mm 1 m/s 745 mmHg 27%
16:00 +39°C° 0 mm 2 m/s 745 mmHg 33%
17:00 +37°C° 0 mm 3 m/s 745 mmHg 39%
18:00 +35°C° 0 mm 4 m/s 746 mmHg 45%
19:00 +33°C° 0 mm 4 m/s 746 mmHg 50%
20:00 +32°C° 0 mm 4 m/s 747 mmHg 56%
21:00 +29°C° 0 mm 4 m/s 747 mmHg 62%
22:00 +28°C° 0 mm 3 m/s 748 mmHg 64%
23:00 +27°C° 0 mm 2 m/s 748 mmHg 67%

29 Outubro, Quinta-feira

Tempo Temperatura Precipitação Vento Pressão Humidade
00:00 +27°C° 0 mm 2 m/s 748 mmHg 69%
01:00 +26°C° 0 mm 1 m/s 748 mmHg 72%
02:00 +25°C° 0 mm 1 m/s 747 mmHg 76%
03:00 +24°C° 0 mm 1 m/s 747 mmHg 79%
04:00 +24°C° 0 mm 1 m/s 748 mmHg 79%
05:00 +22°C° 0 mm 0 m/s 748 mmHg 79%
06:00 +22°C° 0 mm 0 m/s 749 mmHg 78%
07:00 +28°C° 0 mm 1 m/s 749 mmHg 64%
08:00 +31°C° 0 mm 1 m/s 750 mmHg 50%
09:00 +36°C° 0 mm 2 m/s 750 mmHg 36%
10:00 +38°C° 0 mm 2 m/s 750 mmHg 30%
11:00 +40°C° 0 mm 2 m/s 749 mmHg 23%
12:00 +43°C° 0 mm 2 m/s 748 mmHg 17%
13:00 +43°C° 0 mm 2 m/s 747 mmHg 15%
14:00 +44°C° 0 mm 3 m/s 746 mmHg 13%
15:00 +45°C° 0 mm 3 m/s 746 mmHg 12%
16:00 +42°C° 0 mm 3 m/s 746 mmHg 16%
17:00 +38°C° 0 mm 3 m/s 746 mmHg 21%
18:00 +36°C° 0 mm 3 m/s 746 mmHg 25%
19:00 +34°C° 0 mm 3 m/s 747 mmHg 37%
20:00 +31°C° 0 mm 3 m/s 748 mmHg 48%
21:00 +29°C° 0 mm 3 m/s 748 mmHg 59%
22:00 +28°C° 0 mm 2 m/s 748 mmHg 61%
23:00 +27°C° 0 mm 2 m/s 748 mmHg 64%

30 Outubro, Sexta-feira

Tempo Temperatura Precipitação Vento Pressão Humidade
00:00 +26°C° 0 mm 1 m/s 748 mmHg 66%
01:00 +25°C° 0 mm 1 m/s 748 mmHg 68%
02:00 +25°C° 0 mm 2 m/s 748 mmHg 70%
03:00 +24°C° 0 mm 2 m/s 748 mmHg 71%
04:00 +24°C° 0 mm 1 m/s 748 mmHg 73%
05:00 +24°C° 0 mm 1 m/s 749 mmHg 74%
06:00 +24°C° 0 mm 1 m/s 750 mmHg 75%
07:00 +27°C° 0 mm 1 m/s 750 mmHg 63%
08:00 +30°C° 0 mm 2 m/s 750 mmHg 50%
09:00 +35°C° 0 mm 3 m/s 751 mmHg 38%
10:00 +38°C° 0 mm 3 m/s 750 mmHg 31%
11:00 +40°C° 0 mm 3 m/s 749 mmHg 23%
12:00 +44°C° 0 mm 3 m/s 749 mmHg 15%
13:00 +44°C° 0 mm 3 m/s 748 mmHg 15%
14:00 +45°C° 0 mm 3 m/s 747 mmHg 14%
15:00 +45°C° 0 mm 3 m/s 746 mmHg 13%
16:00 +42°C° 0 mm 3 m/s 746 mmHg 17%
17:00 +39°C° 0 mm 3 m/s 747 mmHg 20%
18:00 +36°C° 0 mm 2 m/s 747 mmHg 24%
19:00 +34°C° 0 mm 2 m/s 747 mmHg 36%
20:00 +31°C° 0 mm 2 m/s 748 mmHg 48%
21:00 +29°C° 0 mm 3 m/s 749 mmHg 60%
22:00 +28°C° 0 mm 2 m/s 749 mmHg 61%
23:00 +27°C° 0 mm 1 m/s 749 mmHg 61%

31 Outubro, Sábado

Tempo Temperatura Precipitação Vento Pressão Humidade
00:00 +26°C° 0 mm 1 m/s 749 mmHg 62%
01:00 +26°C° 0 mm 1 m/s 748 mmHg 64%
02:00 +25°C° 0 mm 1 m/s 748 mmHg 66%
03:00 +24°C° 0 mm 1 m/s 748 mmHg 68%
Mostrar mais